Dewpoint
2 5 3 2 2 2 2 0 -4 -1 -2 -2 -1 -0 1 2 4 6 10 12 11 14 15 12 13 10 10 10 8 7 8 2 -1 5 10 10 10 10 10 8 0 -2 3 7 7 11 11 11 11
1 3 3 1 3 3 2 -2 -3 -5 -2 -1 -1 -1 0 2 4 10 11 11 12 14 15 14 14 13 11 11 10 9 5 6 11 11 9 10 9 9 4 2 -2 -4 -4 -3 -0 6 8 9 8
2 3 1 2 2 2 1 -2 -3 -3 -2 -2 -1 0 1 4 7 9 11 7 12 14 15 15 14 14 13 11 10 9 2 6 12 12 10 5 5 7 8 6 2 -1 -3 -5 -4 -2 -3 -2 -2
4 2 0 2 2 -0 -1 -2 -3 -2 -2 -1 -0 0 3 6 7 9 11 10 12 14 14 15 14 14 13 12 10 8 1 2 12 10 4 7 9 10 9 8 5 1 1 1 0 0 1 2 3
4 1 2 1 -0 -2 -3 -2 -2 -2 -2 -1 -1 0 2 7 9 10 12 11 12 13 15 13 14 14 13 12 9 7 1 -2 10 10 7 9 10 10 10 10 8 3 2 3 3 3 5 7 8
2 0 2 1 -0 -2 -4 -2 -2 -2 -3 -2 -1 -0 2 8 9 11 11 11 12 13 14 14 14 14 13 11 9 6 2 -2 3 8 9 10 10 11 10 10 9 4 3 5 7 8 8 9 9
3 2 1 -0 -2 -3 -3 -2 -2 -2 -3 -3 -2 -1 2 6 11 11 12 11 12 13 14 15 14 14 13 11 9 8 4 -2 5 8 10 10 10 11 10 10 9 3 4 7 9 9 9 10 10
2 1 2 -0 -2 -2 -4 -2 -2 -2 -2 -2 -1 -1 1 5 11 11 11 12 12 13 13 14 16 14 12 12 10 9 6 -1 -0 8 9 10 10 11 11 9 7 3 7 8 9 10 10 10 9
5 4 3 1 -2 -2 -4 -2 -2 -1 -1 -1 -1 -1 3 5 11 11 11 12 12 13 13 13 14 15 14 13 10 9 7 2 -1 3 6 9 11 10 10 9 4 6 8 9 10 10 10 9 8
5 4 1 -3 -4 -2 -2 -1 -1 -0 -0 -2 0 1 3 5 8 10 11 11 12 12 13 13 13 14 14 14 13 11 10 6 3 1 1 5 11 11 11 4 4 8 9 9 9 9 9 8 7
3 4 -1 -2 1 1 0 -1 1 1 1 -2 -1 0 2 3 6 8 9 9 11 12 12 13 13 13 14 14 14 13 13 12 11 10 9 9 9 7 6 4 6 9 10 9 9 9 8 8 8
3 1 1 0 2 4 3 1 1 1 1 -1 -1 1 2 3 3 4 6 8 9 10 12 13 14 14 14 15 14 13 12 12 12 12 10 9 8 8 9 10 11 10 9 9 9 8 8 8 7
3 2 0 1 3 3 4 3 2 2 2 1 1 1 3 3 3 3 4 5 7 9 11 12 13 14 14 14 14 13 12 12 12 12 11 8 9 10 10 11 9 9 9 9 8 8 8 7 -3
2 2 1 2 2 2 2 1 1 0 0 1 1 1 1 2 3 3 3 4 4 7 9 11 13 14 14 14 14 13 12 12 12 12 11 10 10 10 11 9 9 9 9 8 8 8 7 -4 -6
4 5 3 3 2 2 2 3 3 1 -0 -1 -1 -1 -1 -0 -0 1 2 3 4 3 6 8 11 13 14 14 13 13 13 12 13 12 11 11 11 11 9 9 9 9 9 8 8 6 -5 -6 -9
4 3 5 1 1 1 1 3 -2 -2 -1 -0 -0 -1 -1 -2 -2 -1 0 2 4 4 3 4 8 11 13 13 13 13 13 12 13 12 11 11 11 10 9 9 9 8 8 8 7 -4 -5 -8 -10
4 5 4 2 1 1 3 4 -0 1 2 -1 -1 -0 -0 -1 -1 -2 -1 0 2 3 4 4 4 7 10 12 13 13 13 12 12 12 12 12 10 9 9 9 9 8 8 8 -4 -4 -6 -6 -9
4 4 3 2 -1 1 2 2 -0 -1 -0 1 1 1 0 0 1 1 1 1 -0 1 3 3 4 4 6 10 12 12 13 12 13 13 12 10 10 9 9 10 9 8 8 -3 -3 -3 -3 -4 -6
1 2 2 0 -1 0 0 0 -1 -2 -3 -2 -2 -1 -1 -1 -1 0 1 2 2 1 2 3 3 4 6 8 11 12 12 12 13 13 11 10 10 9 10 10 9 8 -0 -4 -2 -2 -2 -3 -4
2 3 2 0 -1 -0 0 0 -2 -3 -3 -3 -3 -3 -3 -2 -2 -3 -1 0 2 2 3 3 3 5 6 8 10 13 13 13 13 12 11 11 10 10 11 10 8 5 -4 -2 -1 -1 -1 -2 -4
2 3 2 2 -0 -1 -0 0 -3 -5 -5 -5 -4 -3 -3 -4 -4 -5 -5 -3 -1 2 2 3 3 5 7 9 12 13 13 13 12 12 12 11 11 11 11 9 7 -3 -3 -1 -1 -1 -1 -3 -4
3 -0 0 1 2 3 -1 3 -2 -5 -6 -6 -6 -6 -6 -5 -5 -5 -5 -5 -3 -1 2 3 4 6 8 10 12 9 7 9 11 12 12 12 11 11 10 6 -0 -3 -1 -1 -1 -1 -1 -2 -5
2 -0 1 1 2 3 2 4 -1 -4 -4 -5 -6 -6 -6 -5 -5 -5 -5 -5 -5 -4 0 3 5 8 10 10 11 10 9 9 11 12 12 12 11 10 9 2 -3 -2 -1 -1 -1 -1 -1 -2 -6
1 1 1 1 2 5 0 -0 -2 -5 -7 -8 -7 -6 -7 -8 -7 -6 -4 -4 -4 -3 -1 3 6 9 11 10 10 9 8 9 11 12 11 11 10 9 8 -3 -3 -2 -1 -1 -1 -1 -2 -3 -6
1 3 4 6 6 4 -4 -0 -2 -6 -7 -7 -7 -7 -7 -6 -3 -2 -4 -3 -3 -2 -2 4 6 10 10 11 9 8 10 9 10 12 11 11 10 8 3 -3 -2 -2 -1 -1 -1 -2 -2 -4 -9
3 2 3 3 2 0 -3 -0 -2 -8 -8 -7 -7 -7 -7 -6 -1 2 2 -1 -2 -1 0 5 8 10 10 8 9 10 10 9 11 11 11 10 9 6 2 -3 -2 -2 -1 -1 -2 -2 -3 -6 -11
3 5 1 3 1 3 -1 -4 -6 -7 -8 -9 -8 -7 -6 -3 1 2 3 2 -2 1 3 5 8 9 9 9 10 10 9 11 11 11 10 8 4 1 -2 -3 -2 -2 -2 -2 -2 -3 -5 -9 -14
1 1 4 5 5 3 -1 -3 -3 -6 -7 -8 -8 -8 -5 -1 1 2 3 2 -0 1 4 6 8 8 9 9 9 8 10 11 11 9 8 5 2 1 -2 -3 -2 -2 -2 -3 -3 -5 -7 -13 -15
3 4 3 1 5 4 3 -0 -7 -6 -6 -7 -6 -4 -2 1 1 2 4 2 2 2 5 7 7 8 8 8 7 9 10 10 9 9 7 5 1 -1 -4 -3 -3 -3 -3 -4 -5 -7 -11 -14 -15
-2 1 1 6 3 4 5 4 -5 -6 -6 -6 -6 -3 -1 -1 0 2 4 5 5 6 7 7 7 7 8 5 6 9 10 10 9 8 4 1 -3 -4 -4 -3 -3 -3 -4 -5 -6 -10 -15 -16 -15
Wind_Speed
7 7 7 8 6 7 12 9 11 5 5 8 3 7 8 12 9 2 9 5 13 18 17 16 15 12 11 8 7 5 2 2 7 11 10 9 4 1 0 3 4 4 3 7 7 4 2 3 3
5 6 7 11 7 12 11 12 8 9 3 5 10 11 10 8 5 5 11 9 16 18 17 17 16 13 10 7 6 4 3 8 12 12 7 3 5 5 5 6 7 6 5 5 8 7 6 7 6
4 6 10 6 13 14 12 5 7 4 6 6 4 6 4 2 3 7 6 13 17 16 15 17 17 16 10 6 6 4 5 10 11 9 4 10 14 12 9 9 9 9 8 7 5 4 2 1 2
6 10 10 11 17 15 16 1 2 6 5 3 2 6 5 2 3 5 12 15 17 16 15 18 17 14 10 7 5 4 5 11 12 10 12 11 10 8 7 7 7 7 7 7 6 6 5 5 5
11 12 11 15 21 20 9 10 7 8 3 6 4 8 2 4 7 8 12 14 17 16 15 15 17 13 10 8 6 4 5 9 13 11 10 8 6 5 4 4 4 4 4 5 5 5 5 5 6
13 13 12 16 20 19 17 12 12 13 11 8 9 10 3 6 7 9 11 14 16 17 14 14 16 13 10 8 7 5 6 8 10 12 12 9 6 3 4 3 1 1 2 3 5 5 5 5 5
17 11 17 20 18 18 15 14 13 15 16 14 7 8 8 7 5 9 11 13 15 15 15 12 15 15 11 8 7 6 5 7 11 14 14 10 7 3 7 6 2 1 1 2 4 4 3 3 4
19 14 21 19 18 21 13 10 14 15 16 4 5 7 4 6 6 9 10 12 14 15 15 15 15 15 14 12 10 7 7 7 12 13 12 10 8 5 6 4 4 2 3 2 2 2 3 5 7
13 13 16 21 22 15 13 8 15 11 14 8 11 11 4 5 8 9 10 11 13 14 15 16 15 16 14 13 12 10 9 9 11 13 12 11 6 6 4 6 3 3 3 1 1 3 5 8 6
13 13 20 16 15 16 15 12 16 10 17 17 13 8 2 3 8 11 11 12 14 15 17 17 19 16 17 15 14 11 10 10 9 11 12 11 9 8 10 7 5 4 3 2 2 4 6 5 4
16 18 14 17 11 10 14 14 16 13 15 17 20 15 9 6 7 11 13 13 14 15 16 17 17 18 20 18 17 13 11 9 10 10 10 11 11 13 10 6 4 3 4 2 3 6 7 9 11
16 17 22 15 9 13 13 19 19 22 21 18 14 13 9 11 13 11 14 16 15 16 17 18 18 18 17 19 17 15 15 13 12 12 13 12 11 9 8 5 10 6 5 3 4 6 11 13 12
13 17 15 16 17 16 17 21 21 22 22 22 24 20 19 19 18 16 14 14 17 18 18 18 19 20 18 17 15 14 15 15 14 13 13 12 12 11 9 11 8 6 4 4 8 8 11 13 13
2 13 15 16 18 18 19 23 24 21 28 29 29 28 28 28 25 21 19 16 17 19 18 18 20 20 19 19 17 16 16 16 19 15 16 15 13 13 14 11 9 7 5 7 8 11 13 13 14
9 14 14 19 21 15 14 20 24 33 30 30 30 29 31 32 30 30 26 23 19 18 19 19 20 20 21 20 19 17 17 17 20 16 16 16 16 18 12 10 7 7 8 9 9 11 11 13 13
6 11 11 3 9 14 10 17 10 13 20 26 30 30 31 30 30 31 30 28 24 20 19 20 21 21 20 20 19 19 18 18 21 18 18 18 18 13 11 12 10 7 9 10 10 9 10 11 12
11 10 14 10 10 8 14 12 9 6 10 18 18 21 25 27 29 31 31 31 30 27 24 22 23 23 23 23 22 21 20 22 23 21 21 22 17 15 14 13 10 9 10 10 7 7 8 9 11
9 15 12 12 4 7 15 21 20 23 23 22 23 23 24 25 25 25 27 30 31 31 28 25 24 24 22 22 24 22 24 25 24 24 23 21 19 17 16 15 13 10 9 8 5 6 7 8 10
9 8 11 10 9 16 21 22 20 23 27 28 29 30 32 32 29 27 27 27 28 34 33 31 29 27 25 26 27 28 31 30 33 29 27 24 22 20 19 17 15 11 10 7 5 5 7 9 11
13 14 15 14 14 13 17 28 25 27 29 31 32 35 35 35 34 33 32 30 30 31 32 31 31 28 27 27 28 29 32 35 36 33 30 27 25 23 21 19 16 13 10 7 5 5 8 10 11
13 13 12 14 17 18 21 24 15 7 10 19 29 34 37 36 34 33 34 35 35 34 34 34 33 31 29 27 27 29 35 41 40 36 35 32 29 25 23 20 17 14 11 7 5 5 6 9 11
13 10 13 14 9 6 3 10 15 15 16 14 15 17 20 22 24 29 33 33 35 36 35 34 33 32 31 31 32 36 40 42 42 39 37 33 31 29 25 21 19 15 11 8 5 6 7 8 10
7 2 6 8 10 13 14 7 13 5 11 12 13 16 15 17 19 21 25 29 33 33 35 33 31 30 30 35 30 34 36 31 38 37 36 34 33 29 25 23 19 15 12 8 6 7 8 9 9
3 5 7 9 6 8 11 15 19 11 15 14 12 20 12 11 13 16 18 22 26 30 29 33 34 31 30 31 37 36 31 32 39 41 40 36 34 30 25 24 20 16 12 8 7 8 9 10 11
9 2 2 3 5 7 5 10 20 11 17 7 7 10 18 13 15 19 21 20 22 25 32 29 32 32 31 34 32 30 30 35 36 40 39 37 34 30 24 24 20 16 12 9 8 8 10 11 12
14 10 5 5 7 10 8 10 7 8 5 7 15 23 19 17 14 15 20 23 21 24 28 30 30 32 32 33 31 28 34 34 33 36 39 35 32 29 26 24 20 15 11 9 8 9 11 13 14
6 9 11 13 18 11 9 21 24 26 24 21 21 22 20 14 13 14 17 18 22 22 26 30 30 31 30 29 28 32 34 33 33 35 34 33 29 27 25 22 18 14 10 9 8 10 12 13 14
10 4 1 4 5 10 13 20 14 15 14 15 12 17 17 11 15 16 15 14 18 19 24 29 29 29 28 27 29 32 33 33 32 35 35 32 27 24 23 21 16 12 9 8 9 11 12 13 15
10 6 6 6 5 6 14 13 10 10 5 9 7 7 7 11 13 14 17 8 13 17 21 27 28 28 28 28 30 32 33 35 34 35 35 31 26 24 22 19 14 10 8 8 10 12 13 14 15
12 13 17 7 9 7 12 20 13 11 10 5 11 9 9 9 11 12 13 4 7 13 19 24 27 28 30 30 31 33 34 33 35 35 32 28 25 23 20 16 12 9 8 9 11 13 14 15 17
Wind_Direction
283 304 293 280 252 229 258 241 247 237 231 232 312 275 316 332 348 267 147 144 151 151 162 167 163 160 154 148 145 141 133 138 146 140 158 179 187 186 12 335 29 55 150 201 215 229 161 178 276
260 292 269 265 251 249 247 216 209 235 258 278 249 246 256 267 39 90 138 150 152 150 163 163 165 167 156 155 156 142 114 124 124 138 155 164 222 223 134 84 68 68 91 165 214 226 250 247 260
246 256 261 237 237 248 257 156 243 168 243 239 244 228 271 47 97 132 147 152 154 155 161 183 164 172 174 169 168 154 139 143 137 155 148 133 114 111 92 70 61 65 74 92 130 171 213 239 270
231 230 242 247 245 237 258 270 246 232 207 208 270 256 169 97 135 153 152 151 155 156 161 194 177 176 185 189 184 165 147 158 160 152 140 132 112 101 89 73 59 62 72 80 88 92 84 74 60
215 244 239 230 244 252 233 264 208 244 253 236 210 244 183 115 125 137 155 156 160 158 176 193 182 192 195 191 188 170 155 165 182 166 161 151 149 143 111 57 57 65 81 85 84 81 77 74 68
218 231 237 236 240 241 247 220 224 236 246 237 245 244 152 128 144 150 156 159 167 164 169 175 178 181 194 194 186 175 159 162 169 180 178 170 168 178 176 164 104 76 78 84 92 94 87 74 51
235 220 238 246 250 245 224 225 239 240 236 230 230 254 132 133 143 152 155 162 167 169 167 177 181 181 204 208 189 181 164 165 167 165 171 170 175 168 166 181 202 199 125 121 111 96 70 30 8
239 251 244 246 250 249 245 220 240 244 245 211 210 230 197 121 141 148 157 166 168 174 172 179 182 192 205 211 196 188 179 171 179 182 179 171 177 164 168 191 214 202 179 142 109 57 3 352 339
234 249 237 236 243 248 254 218 230 237 252 223 219 257 84 125 157 164 168 173 177 181 181 181 191 189 196 199 196 194 189 180 184 190 189 186 168 179 184 190 207 201 203 202 345 343 341 345 354
220 229 238 247 252 248 267 220 236 222 230 230 218 218 179 169 182 187 190 192 192 192 192 190 188 192 196 203 208 200 201 193 188 194 195 181 187 193 188 214 213 218 225 256 318 339 327 352 331
222 243 239 247 294 277 270 238 247 249 254 225 223 219 205 204 202 206 210 207 206 204 201 198 195 191 199 194 204 192 202 193 192 190 193 188 192 206 205 211 224 257 237 282 326 326 307 308 308
239 249 254 270 254 252 250 259 249 245 252 253 243 261 224 237 230 221 220 217 210 207 205 201 200 197 204 197 197 187 198 192 201 199 195 194 184 183 182 177 201 196 233 273 297 289 303 309 315
238 254 242 261 259 256 262 262 262 254 250 252 258 250 249 251 243 234 230 224 218 214 208 205 199 200 199 206 202 199 205 198 202 202 197 189 187 185 180 198 193 216 224 256 284 291 307 307 312
288 260 267 254 255 250 256 260 255 249 249 253 253 252 250 248 244 242 235 230 220 217 213 208 206 204 201 203 207 206 209 204 199 201 198 189 190 187 191 196 235 221 257 261 269 290 301 307 313
265 264 262 249 243 237 255 261 251 251 250 250 249 247 247 248 247 243 239 234 229 222 218 214 213 209 207 207 207 211 212 207 206 201 198 189 190 205 211 215 221 247 256 255 276 292 302 314 320
238 246 258 180 227 238 224 262 267 244 239 246 248 250 248 246 242 240 238 235 231 227 220 218 214 211 213 211 212 212 213 211 215 199 196 190 205 204 213 216 223 256 256 263 277 295 316 327 326
220 257 221 240 197 241 212 277 288 257 273 254 253 250 248 245 243 240 237 235 234 231 227 222 215 212 211 211 212 214 214 214 213 201 195 199 204 207 209 217 224 232 245 255 270 304 322 329 329
233 221 247 263 171 235 266 271 275 272 266 261 261 257 253 247 244 241 239 239 235 232 230 224 217 214 211 212 210 210 211 215 209 195 198 205 207 207 213 215 222 233 237 243 272 309 327 336 339
267 282 277 280 287 289 280 277 275 275 267 259 256 254 252 251 249 245 240 237 234 231 229 224 220 217 210 206 203 204 206 208 208 207 207 206 210 212 211 213 219 224 218 238 269 305 329 338 347
256 263 267 285 281 295 295 286 285 270 259 256 254 252 251 251 248 245 241 239 234 230 229 224 221 217 209 211 206 202 202 206 206 210 205 207 210 210 211 215 217 212 218 231 257 307 327 338 353
240 257 272 276 302 291 282 287 264 252 251 251 247 249 253 253 251 247 243 238 235 231 227 225 221 217 209 202 194 189 200 205 210 206 201 205 206 209 209 211 217 206 217 229 257 302 333 335 342
257 266 272 275 290 274 81 294 285 287 272 246 248 246 245 247 248 248 246 243 237 233 229 223 221 214 208 198 198 215 219 215 213 206 202 201 203 204 205 207 207 207 217 229 259 301 326 339 331
263 3 279 276 275 304 256 244 267 222 267 253 241 241 234 247 247 249 245 243 242 236 229 221 217 210 202 206 201 212 212 210 210 198 196 197 198 200 208 203 201 207 219 234 266 297 319 329 324
63 259 260 257 271 261 239 221 277 278 288 281 291 235 226 266 272 268 260 250 240 235 229 217 212 208 201 199 205 213 207 201 205 199 195 194 197 200 205 197 202 209 221 239 269 296 315 321 321
207 209 277 216 208 249 317 208 242 285 300 289 274 243 281 285 290 289 270 258 240 229 224 216 210 203 196 198 205 203 197 210 209 207 199 196 196 198 200 199 202 212 223 244 273 297 312 317 318
205 209 221 259 239 298 329 244 246 276 292 282 272 262 263 283 292 304 289 260 245 228 216 212 205 198 198 201 192 187 195 205 202 201 197 195 195 197 200 198 204 214 227 250 277 298 309 314 312
177 213 246 283 282 279 251 270 270 270 270 278 251 253 258 270 290 319 317 274 241 226 214 208 202 197 194 188 183 186 202 201 198 196 191 191 191 197 193 198 206 216 232 256 284 299 309 311 306
221 338 142 212 270 269 259 268 265 278 254 270 290 246 237 270 300 325 335 293 240 223 212 203 198 191 186 181 178 191 195 195 194 188 186 187 194 192 194 199 207 219 239 265 287 300 304 304 301
197 227 234 298 228 270 291 268 316 307 346 328 244 208 264 287 307 326 338 305 257 223 207 196 189 183 177 177 187 188 189 191 187 189 188 189 189 192 191 199 208 224 249 277 294 299 300 302 299
238 216 225 231 230 234 261 266 302 276 254 267 275 266 249 274 311 326 332 327 256 210 191 188 178 172 172 180 186 185 185 187 184 185 186 186 182 187 193 200 211 231 262 285 295 299 301 300 298
Height
1505 1507 1508 1508 1507 1493 1487 1478 1476 1478 1479 1479 1481 1482 1477 1474 1474 1483 1486 1487 1489 1491 1492 1493 1496 1498 1500 1502 1504 1505 1506 1506 1507 1509 1509 1510 1511 1513 1514 1514 1514 1514 1515 1516 1517 1518 1518 1519 1520
1504 1507 1508 1503 1502 1494 1481 1469 1478 1476 1479 1482 1483 1482 1481 1477 1480 1484 1487 1487 1490 1493 1493 1495 1496 1499 1501 1503 1505 1505 1506 1507 1508 1510 1512 1512 1512 1513 1516 1515 1515 1515 1515 1515 1517 1518 1519 1520 1520
1503 1506 1505 1498 1493 1490 1479 1467 1474 1477 1481 1481 1479 1480 1477 1478 1483 1486 1487 1487 1491 1495 1496 1496 1497 1500 1502 1504 1505 1506 1507 1508 1510 1511 1513 1514 1514 1514 1515 1516 1517 1516 1516 1517 1518 1519 1519 1520 1521
1504 1505 1503 1496 1487 1476 1473 1470 1475 1480 1480 1481 1480 1478 1480 1482 1484 1486 1486 1488 1492 1495 1499 1496 1499 1500 1503 1505 1507 1507 1508 1508 1510 1512 1513 1515 1515 1516 1517 1517 1518 1518 1518 1519 1520 1520 1520 1521 1521
1501 1498 1492 1488 1483 1475 1470 1475 1479 1480 1478 1479 1480 1474 1477 1483 1483 1483 1485 1488 1492 1496 1497 1496 1499 1503 1504 1505 1507 1508 1509 1509 1510 1512 1514 1515 1516 1516 1518 1519 1519 1520 1520 1520 1521 1521 1521 1522 1522
1497 1493 1489 1485 1476 1471 1470 1475 1479 1479 1478 1478 1480 1477 1477 1482 1484 1484 1485 1488 1492 1494 1497 1496 1500 1502 1505 1506 1506 1508 1508 1509 1511 1512 1514 1515 1516 1517 1518 1519 1520 1521 1522 1522 1521 1521 1522 1523 1523
1491 1485 1482 1476 1472 1467 1467 1475 1477 1477 1477 1476 1477 1476 1476 1481 1484 1484 1486 1489 1492 1494 1496 1498 1499 1501 1504 1506 1506 1508 1508 1509 1511 1512 1514 1515 1517 1517 1518 1519 1520 1521 1522 1522 1523 1522 1523 1524 1523
1490 1485 1479 1475 1473 1470 1465 1472 1477 1477 1476 1477 1480 1476 1473 1481 1483 1486 1488 1489 1491 1493 1495 1498 1499 1500 1502 1503 1505 1507 1508 1509 1511 1512 1513 1516 1517 1518 1519 1519 1520 1521 1522 1523 1524 1524 1523 1524 1524
1490 1483 1477 1473 1470 1469 1466 1471 1476 1479 1479 1479 1478 1478 1480 1481 1482 1485 1487 1489 1491 1492 1494 1498 1499 1500 1501 1503 1503 1506 1507 1509 1510 1512 1513 1515 1518 1519 1519 1519 1520 1521 1522 1523 1524 1524 1524 1523 1523
1486 1480 1472 1467 1464 1466 1467 1473 1473 1477 1478 1476 1478 1479 1479 1481 1482 1484 1486 1488 1489 1491 1493 1494 1498 1499 1499 1501 1502 1504 1507 1507 1510 1511 1512 1514 1518 1519 1520 1519 1520 1521 1522 1523 1524 1524 1524 1524 1525
1480 1476 1468 1467 1471 1472 1471 1472 1476 1476 1475 1472 1473 1476 1479 1481 1481 1482 1485 1486 1487 1489 1491 1493 1496 1498 1497 1498 1500 1504 1507 1508 1510 1512 1512 1515 1516 1516 1518 1518 1520 1521 1521 1523 1523 1524 1523 1523 1523
1478 1475 1472 1470 1473 1477 1475 1476 1473 1473 1475 1473 1474 1474 1475 1479 1480 1480 1482 1484 1485 1487 1489 1491 1494 1496 1498 1497 1499 1502 1506 1507 1510 1510 1512 1513 1514 1516 1519 1520 1521 1520 1521 1522 1523 1523 1522 1522 1521
1476 1476 1473 1475 1475 1477 1477 1475 1473 1470 1473 1473 1473 1474 1475 1477 1478 1478 1479 1480 1482 1484 1486 1487 1490 1492 1496 1498 1499 1501 1504 1504 1508 1509 1510 1512 1514 1516 1518 1518 1518 1518 1520 1521 1522 1522 1521 1520 1519
1473 1475 1472 1474 1474 1475 1476 1472 1473 1469 1468 1469 1470 1470 1470 1473 1474 1474 1476 1477 1478 1481 1482 1485 1486 1487 1491 1494 1497 1500 1502 1502 1503 1506 1508 1509 1512 1514 1514 1515 1516 1518 1519 1520 1520 1520 1519 1517 1516
1477 1478 1472 1469 1470 1471 1472 1466 1460 1460 1462 1462 1461 1462 1464 1466 1467 1469 1470 1472 1474 1476 1479 1481 1483 1485 1487 1489 1493 1497 1498 1500 1500 1504 1505 1507 1509 1509 1511 1513 1515 1516 1517 1518 1517 1517 1517 1516 1514
1475 1473 1470 1455 1462 1464 1471 1458 1447 1452 1452 1454 1454 1455 1456 1457 1459 1461 1464 1467 1470 1472 1474 1476 1479 1481 1483 1486 1489 1493 1495 1497 1497 1501 1503 1505 1505 1507 1509 1511 1512 1514 1515 1516 1516 1516 1514 1513 1512
1469 1464 1458 1454 1458 1461 1464 1452 1445 1449 1450 1448 1448 1449 1449 1449 1451 1454 1457 1460 1463 1466 1468 1471 1473 1474 1478 1480 1484 1488 1491 1493 1494 1498 1500 1501 1502 1504 1506 1508 1510 1511 1512 1514 1514 1513 1512 1511 1510
1454 1458 1457 1457 1454 1460 1458 1451 1447 1447 1446 1446 1446 1445 1444 1444 1446 1448 1450 1453 1455 1458 1462 1465 1465 1467 1471 1475 1478 1482 1486 1488 1491 1494 1495 1497 1500 1501 1503 1506 1508 1508 1510 1512 1511 1511 1510 1509 1508
1457 1462 1458 1454 1454 1457 1453 1445 1442 1441 1438 1437 1437 1438 1438 1438 1440 1441 1443 1445 1447 1450 1453 1455 1459 1460 1463 1466 1469 1474 1476 1481 1485 1487 1489 1492 1496 1499 1501 1504 1505 1507 1509 1509 1509 1509 1508 1507 1506
1465 1464 1462 1459 1459 1459 1452 1436 1435 1431 1424 1427 1428 1428 1429 1430 1431 1432 1435 1437 1439 1441 1445 1449 1451 1454 1455 1458 1462 1467 1470 1473 1478 1480 1484 1488 1491 1495 1499 1501 1503 1505 1506 1507 1507 1507 1506 1505 1504
1465 1466 1466 1467 1461 1460 1454 1427 1411 1407 1412 1413 1416 1419 1420 1420 1421 1423 1425 1427 1430 1432 1435 1439 1443 1446 1447 1452 1456 1460 1462 1465 1468 1473 1478 1482 1486 1491 1494 1498 1500 1502 1504 1505 1505 1505 1505 1503 1502
1465 1460 1461 1463 1469 1463 1457 1438 1416 1408 1405 1405 1407 1410 1411 1412 1414 1415 1416 1418 1420 1424 1428 1431 1435 1438 1440 1444 1446 1447 1450 1454 1459 1466 1471 1477 1482 1486 1491 1495 1498 1499 1501 1502 1503 1503 1503 1502 1501
1467 1466 1469 1468 1469 1471 1457 1466 1404 1405 1405 1402 1402 1402 1404 1405 1406 1407 1408 1409 1411 1415 1419 1422 1428 1432 1433 1436 1440 1442 1447 1453 1457 1462 1468 1472 1478 1483 1487 1491 1494 1497 1498 1499 1500 1500 1500 1501 1500
1470 1469 1471 1469 1472 1469 1444 1440 1398 1398 1390 1386 1388 1393 1401 1402 1402 1402 1403 1403 1403 1407 1411 1413 1419 1425 1427 1430 1434 1437 1442 1446 1449 1456 1462 1468 1474 1479 1483 1487 1491 1493 1495 1496 1497 1497 1497 1497 1497
1468 1473 1467 1467 1470 1449 1421 1427 1400 1391 1393 1395 1395 1395 1397 1399 1400 1399 1398 1398 1398 1399 1403 1407 1410 1415 1420 1424 1429 1434 1439 1441 1445 1450 1457 1463 1469 1475 1479 1484 1487 1490 1492 1494 1494 1494 1494 1493 1493
1465 1467 1459 1449 1435 1423 1415 1416 1397 1385 1387 1390 1392 1393 1394 1395 1396 1395 1393 1391 1392 1393 1396 1401 1406 1409 1414 1418 1423 1431 1435 1438 1443 1448 1454 1460 1467 1471 1475 1481 1485 1487 1489 1490 1491 1490 1490 1489 1489
1464 1470 1460 1460 1449 1447 1418 1399 1385 1383 1384 1382 1384 1390 1392 1394 1396 1391 1387 1385 1386 1388 1391 1395 1401 1406 1409 1416 1421 1426 1429 1434 1440 1446 1454 1460 1465 1469 1474 1478 1482 1485 1487 1487 1487 1487 1486 1486 1486
1458 1457 1468 1469 1456 1434 1399 1389 1383 1377 1377 1375 1379 1380 1387 1391 1392 1389 1382 1381 1382 1383 1386 1390 1396 1402 1407 1413 1418 1421 1424 1431 1438 1445 1451 1458 1463 1468 1472 1476 1479 1482 1483 1484 1484 1484 1483 1483 1482
1458 1462 1460 1450 1450 1432 1413 1377 1369 1376 1376 1378 1380 1383 1387 1391 1389 1385 1381 1377 1380 1380 1383 1388 1393 1398 1405 1409 1412 1417 1422 1428 1436 1442 1448 1454 1460 1465 1470 1473 1476 1479 1480 1481 1481 1481 1480 1479 1478
1439 1447 1450 1452 1436 1434 1430 1383 1379 1376 1378 1381 1382 1383 1385 1387 1386 1383 1380 1375 1379 1379 1381 1387 1391 1396 1402 1405 1408 1415 1422 1427 1433 1441 1446 1452 1459 1464 1468 1470 1473 1475 1477 1478 1478 1478 1477 1475 1474